SCP
-0 -0 -0 -0 -0 0 0 0 0 0 0 0 0 0 0 0 0 0 0 0 0 0 0 0 0 0 0 0 0 0 0 0 0 0 0 0 0 0 0 0 0 0 0 0 0 0 0 0 0
-0 -0 -0 -0 0 0 0 0 0 0 0 0 0 0 0 0 0 0 0 0 0 0 0 0 0 0 0 0 0 0 0 0 0 0 0 0 0 0 0 0 0 0 0 0 0 0 0 0 0
0 -0 -0 0 0 0 0 0 0 0 0 0 0 0 0 0 0 0 0 0 0 0 0 0 0 0 0 0 0 0 0 0 0 0 0 0 0 0 0 0 0 0 0 0 0 0 0 0 0
0 0 0 0 0 0 0 0 0 0 0 0 0 0 0 0 0 0 0 0 0 0 0 0 1 1 0 0 0 0 0 0 0 0 0 0 0 0 0 0 0 0 0 0 0 0 0 0 0
0 0 0 0 0 0 0 0 0 0 0 0 0 0 0 0 0 0 0 0 0 0 0 0 1 1 1 0 0 0 0 0 0 0 0 0 0 0 0 0 0 0 0 0 0 0 0 0 0
0 0 0 0 0 0 0 0 0 0 0 0 0 0 0 0 0 0 0 0 0 0 0 0 1 1 1 1 1 0 0 0 0 0 0 0 0 0 0 0 0 0 0 0 0 0 0 0 0
0 0 0 0 0 0 0 0 0 0 0 0 0 0 0 0 0 0 0 0 0 0 0 0 1 1 1 1 1 1 1 0 0 0 0 0 0 0 0 0 0 0 0 0 0 0 0 0 0
0 0 0 0 0 0 0 0 0 0 0 0 0 0 0 0 0 0 0 0 0 0 0 0 1 1 1 1 1 1 1 0 0 0 0 0 0 0 0 0 0 0 0 0 0 0 0 0 0
0 0 0 0 0 0 0 0 0 0 0 0 0 0 0 0 0 0 0 0 0 0 0 0 1 1 1 1 1 1 0 0 0 0 0 0 0 0 0 0 0 0 0 0 0 0 0 0 0
0 0 0 0 0 0 0 0 0 0 0 0 0 0 0 0 0 0 1 1 1 1 0 0 0 1 1 1 0 0 0 0 0 0 0 0 0 0 0 0 0 0 0 0 0 0 1 1 0
0 0 0 0 0 0 0 0 0 0 0 1 1 0 0 0 0 1 1 1 1 1 1 0 0 0 1 0 0 0 0 0 0 0 0 0 0 0 0 0 0 0 0 0 1 1 1 1 1
0 0 0 0 0 0 0 0 0 0 0 1 1 1 0 0 1 1 1 2 2 2 1 1 0 0 0 0 0 0 0 0 0 0 0 0 0 0 0 0 0 0 0 1 1 1 1 1 1
0 0 0 0 0 0 0 0 0 0 1 1 1 1 1 1 1 1 1 2 2 2 1 1 1 1 0 0 0 0 0 0 0 0 1 1 1 0 0 0 0 0 0 1 1 1 1 1 1
0 0 0 0 0 0 0 0 0 0 1 1 1 1 1 1 1 1 1 2 2 2 1 1 1 1 1 1 1 1 1 1 1 1 1 1 1 1 1 0 0 0 0 0 0 0 0 0 0
0 0 0 0 0 0 0 0 0 0 1 1 1 1 1 1 1 1 1 1 1 1 1 1 1 1 2 2 2 1 1 1 1 1 1 1 1 1 1 0 0 0 0 0 0 0 0 0 0
0 0 0 0 0 0 0 0 0 0 1 1 1 1 1 1 1 1 1 1 1 1 1 1 1 1 2 2 2 2 2 1 1 1 1 1 1 1 1 0 0 0 0 0 0 0 0 0 0
0 0 0 0 0 0 0 0 0 0 1 1 1 1 1 1 1 0 0 0 0 0 0 0 1 1 2 2 2 2 1 1 1 1 1 1 1 1 0 0 0 0 0 0 0 0 0 0 0
0 0 0 0 0 0 0 0 0 1 1 1 1 1 1 1 0 0 0 0 0 0 0 0 0 1 1 2 2 1 1 1 1 1 1 0 0 0 0 0 0 0 0 0 0 0 0 0 0
0 0 0 0 0 0 0 0 0 0 1 1 1 1 1 1 0 0 0 0 0 0 0 0 0 0 1 1 1 1 0 0 0 0 0 0 0 0 0 0 0 0 0 0 0 0 0 0 0
0 0 0 0 0 0 0 0 0 0 0 1 1 1 1 0 0 0 0 0 0 0 0 0 0 0 0 0 0 0 0 0 0 0 0 0 0 0 0 0 0 0 0 0 0 0 0 0 0
0 0 0 0 0 0 0 0 0 0 0 0 0 0 0 0 0 0 0 0 0 0 0 0 0 0 0 0 0 0 0 0 0 0 0 0 0 0 0 0 0 0 0 0 0 0 0 0 0
0 0 0 0 0 0 0 0 0 0 0 0 0 0 0 0 0 0 0 0 0 0 0 0 0 0 0 0 0 0 0 0 0 0 0 0 0 0 0 0 0 0 0 0 0 0 0 0 0
0 0 0 0 0 0 0 0 0 0 0 0 0 0 0 -0 -0 -0 -0 -0 -0 0 0 0 0 0 0 0 0 0 0 0 0 0 0 0 0 0 0 0 0 0 0 0 0 0 0 0 -0
0 0 0 0 0 0 0 0 0 0 0 0 -0 -0 -0 -0 -0 -0 -0 -0 -0 0 0 0 0 0 0 0 0 0 0 0 0 0 0 0 0 0 0 0 0 0 0 0 0 0 0 0 -0
0 0 0 0 0 0 0 0 0 0 0 0 -0 -0 -0 -0 -0 -0 -0 -0 -0 0 0 0 0 0 0 0 0 0 0 0 0 0 0 0 0 0 0 0 0 0 0 0 0 0 0 0 0
0 0 0 0 0 0 0 0 0 0 0 0 0 0 -0 -0 -0 -0 -0 -0 -0 0 0 0 0 0 0 0 0 0 0 0 0 0 0 0 0 0 0 0 0 0 0 0 0 0 0 0 0
0 0 0 0 0 0 0 0 0 0 0 0 0 0 0 0 0 0 0 0 0 0 0 0 0 0 0 0 0 -0 -0 -0 0 0 0 0 0 0 0 0 0 0 0 0 0 0 0 0 0
0 0 0 0 0 0 0 0 0 0 0 0 0 0 0 0 0 0 0 0 0 0 0 0 0 0 0 0 0 0 -0 -0 -0 0 0 0 0 0 0 0 0 0 0 0 0 0 0 0 0
0 0 0 0 0 0 0 0 0 0 0 0 0 0 0 0 0 0 0 0 0 0 0 0 0 0 0 0 0 0 0 0 0 0 0 0 0 0 0 0 0 0 0 0 0 0 0 0 0
0 0 0 0 0 0 0 0 0 0 0 0 0 0 0 0 0 0 0 0 0 0 0 0 0 0 0 0 0 0 0 0 0 0 0 0 0 0 0 0 0 0 0 0 0 0 0 0 0
Wind_Speed
7 6 3 1 1 2 4 6 1 3 5 6 9 9 8 4 4 4 5 16 19 18 14 17 18 19 19 19 19 18 17 17 16 15 15 15 15 14 14 15 15 14 13 12 12 12 11 11 11
4 5 2 0 2 3 5 5 5 3 6 8 9 7 7 6 7 10 7 16 21 18 13 15 20 20 20 20 19 19 18 17 17 16 16 15 15 15 14 14 14 13 13 12 11 11 11 10 10
3 4 3 2 1 2 4 6 5 3 4 3 5 4 5 7 9 8 9 18 17 15 12 15 22 21 21 20 19 19 18 18 17 17 16 16 15 15 14 14 13 13 12 12 11 11 11 10 9
2 2 2 2 3 5 4 3 6 7 5 6 6 5 4 7 8 11 18 18 17 13 11 15 22 21 21 20 19 19 18 17 17 16 16 15 15 14 14 14 13 13 12 12 11 11 10 10 9
3 3 2 1 6 6 4 1 7 9 6 7 5 5 4 4 16 21 19 18 17 12 10 13 21 21 20 20 19 18 18 17 16 16 15 15 14 13 13 13 12 12 12 11 11 10 10 9 9
2 3 2 3 5 2 2 6 10 6 4 4 5 4 3 9 18 19 18 17 16 16 12 12 20 20 20 20 19 19 18 17 16 16 15 14 14 13 13 12 12 12 12 11 11 11 11 11 10
3 1 2 4 5 2 3 7 11 7 2 2 3 4 3 8 13 17 16 15 15 15 13 10 12 16 20 20 19 19 18 18 17 16 16 15 15 14 14 13 13 13 13 13 13 13 13 12 12
5 3 3 3 4 4 2 4 9 10 6 4 4 7 5 8 11 14 13 13 13 13 14 12 11 10 10 13 19 19 18 18 17 17 17 16 16 15 15 13 13 15 15 15 15 15 14 13 12
2 3 4 4 4 5 3 2 3 3 6 3 3 7 10 14 14 14 12 11 11 12 11 11 11 10 9 9 14 16 17 17 17 15 18 16 8 8 9 13 15 16 16 17 17 16 15 14 13
4 3 9 7 6 5 4 3 6 6 6 3 2 5 10 15 16 18 17 17 16 14 12 10 11 11 10 10 8 7 8 8 9 7 9 7 6 7 9 11 18 18 18 18 18 17 15 12 5
3 6 8 9 9 5 4 4 4 10 6 11 15 15 16 15 14 16 17 18 17 15 13 11 11 11 11 8 7 6 5 5 7 8 8 6 5 5 6 4 8 11 14 10 10 11 7 6 5
4 9 8 7 6 4 4 4 2 7 13 17 21 20 17 14 14 14 14 14 12 11 11 10 11 11 12 9 8 8 6 6 6 8 8 6 5 5 5 4 5 4 4 5 5 4 6 7 7
4 6 8 7 8 6 6 6 5 4 8 14 13 11 13 12 9 7 5 6 8 7 5 7 9 10 10 9 7 8 7 7 7 6 7 8 6 6 5 4 3 3 3 4 4 5 6 6 7
6 9 12 10 9 7 7 9 6 5 9 14 12 11 10 8 6 4 5 6 6 6 5 3 4 8 8 8 7 6 6 6 6 6 8 9 6 5 4 4 3 3 3 3 3 4 5 5 4
6 8 12 9 7 7 5 10 9 5 10 14 11 8 4 5 9 10 11 11 9 9 9 9 6 6 6 6 7 5 5 5 5 5 6 7 6 5 4 3 3 3 3 3 2 3 3 3 4
6 5 7 12 7 9 2 9 13 2 10 9 8 5 8 12 13 12 14 15 14 11 9 11 10 7 4 3 4 3 4 4 4 4 4 6 7 6 4 3 2 2 1 1 1 1 2 2 2
4 4 8 13 7 5 4 4 8 6 10 9 8 11 13 12 12 12 13 12 11 8 6 7 11 8 6 0 1 1 2 3 3 4 4 5 6 6 4 3 2 2 1 1 1 1 1 1 1
6 5 5 6 8 7 6 10 17 19 20 17 15 13 13 12 9 8 8 7 5 5 7 7 11 10 10 4 3 3 2 1 2 4 5 6 5 6 5 3 3 3 2 1 1 1 1 1 2
5 4 4 4 5 9 15 18 19 20 22 20 16 14 11 9 6 5 5 5 5 5 8 11 9 6 5 4 2 2 2 2 2 3 5 6 6 6 5 4 3 3 2 1 1 1 1 1 1
4 4 5 5 6 7 14 18 17 21 20 17 15 13 10 7 6 7 6 7 8 8 9 9 7 5 4 3 2 3 3 2 2 3 4 6 6 6 6 5 4 4 2 1 1 1 1 1 1
5 3 3 5 5 7 8 10 13 14 16 16 15 12 12 11 9 9 10 11 12 12 10 8 8 6 5 4 3 2 1 1 1 1 2 4 6 7 6 7 5 4 3 2 2 2 3 2 1
4 5 3 4 4 4 4 3 5 7 13 14 12 11 10 9 9 9 12 12 12 10 9 9 7 7 7 7 5 4 3 2 2 2 2 3 4 6 7 7 6 5 4 3 3 3 3 3 2
3 4 3 3 1 2 4 5 1 3 8 9 8 8 6 6 7 8 9 8 8 7 7 6 6 7 7 8 9 7 6 4 3 3 4 3 2 3 5 7 6 6 5 5 4 3 3 3 3
2 6 8 7 6 3 3 4 1 2 2 3 4 3 2 3 4 5 5 5 5 5 5 5 6 6 6 7 7 7 7 7 6 6 5 4 3 3 3 4 6 6 6 5 5 5 4 4 4
6 7 6 7 6 2 1 5 2 3 3 4 3 2 2 1 2 3 3 3 2 2 2 3 4 4 5 5 6 5 6 6 6 6 5 5 4 3 4 3 5 5 6 6 5 5 5 4 4
1 8 6 3 4 2 3 2 2 3 3 3 3 3 2 1 1 1 1 1 1 1 1 0 1 2 3 3 4 3 4 3 3 4 4 4 4 4 5 5 3 5 6 6 6 4 5 5 5
1 0 4 6 1 2 1 2 1 3 4 3 3 3 2 1 0 1 2 3 3 3 3 2 2 2 3 2 2 2 3 3 4 4 4 4 4 5 6 7 5 4 5 6 6 5 6 5 5
3 3 6 5 2 2 2 3 4 8 7 4 3 3 2 2 3 4 5 5 5 5 5 4 4 4 4 4 4 4 4 4 4 4 4 4 4 4 6 7 7 6 6 5 5 5 6 6 6
4 4 4 3 4 3 2 4 4 7 5 4 3 3 3 4 5 6 7 6 5 4 4 4 5 5 6 7 6 6 6 6 5 5 6 5 5 5 5 5 6 7 7 6 5 6 6 7 6
4 2 3 3 2 2 1 4 2 3 2 1 0 3 4 6 7 7 6 5 4 4 5 6 7 7 8 8 8 8 8 7 7 7 8 6 6 6 5 5 5 6 7 6 6 7 6 6 7
Wind_Direction
162 160 153 166 70 42 306 291 345 41 55 62 79 91 90 72 144 167 142 148 144 151 157 157 158 159 158 155 151 150 149 148 146 145 143 140 139 137 137 140 141 139 137 135 134 134 133 134 135
167 168 158 40 68 33 303 304 338 13 128 122 83 77 80 67 84 111 125 150 147 151 154 156 157 158 159 158 156 156 155 154 154 153 151 149 147 146 145 144 146 146 146 146 146 146 146 146 147
180 179 146 71 57 190 263 297 312 333 136 92 82 53 80 112 120 129 146 147 144 150 155 159 158 159 161 161 161 161 161 161 160 159 158 156 155 154 153 153 154 155 156 158 159 159 160 161 162
149 104 54 67 243 234 224 279 350 356 38 47 97 66 59 128 133 137 142 148 147 153 158 162 160 162 164 165 165 166 166 166 166 165 164 163 163 162 162 163 163 164 165 167 169 169 171 173 175
97 91 58 291 248 230 236 95 49 14 14 37 75 82 38 58 123 136 147 153 153 155 161 166 164 165 167 168 169 170 171 171 171 170 170 170 171 172 172 173 174 174 176 178 179 181 183 187 190
57 76 56 283 279 242 178 122 96 58 35 49 52 73 60 126 134 148 154 159 159 159 164 168 168 169 170 171 173 174 175 176 176 176 177 178 180 182 184 185 187 189 190 192 194 196 198 200 204
149 105 235 267 291 288 187 132 124 149 184 158 123 88 105 149 151 156 158 159 160 162 166 171 173 174 175 176 178 179 181 182 182 183 184 185 188 191 194 196 199 201 203 204 206 208 209 210 211
154 101 295 296 305 289 239 163 160 157 177 158 136 137 171 186 159 160 159 160 163 167 173 176 176 176 177 180 184 185 186 187 188 189 191 193 195 198 202 204 209 211 212 213 215 217 218 218 218
116 70 263 258 273 285 253 208 169 120 129 137 160 171 179 170 158 160 160 161 170 176 181 181 179 179 178 181 190 190 192 194 194 195 198 198 202 205 209 214 216 220 221 221 221 222 223 223 226
117 179 240 237 254 276 257 227 168 140 132 141 164 182 167 167 164 167 172 174 178 182 187 187 185 183 180 188 190 191 196 197 196 197 201 197 193 204 212 222 226 227 228 228 227 226 224 225 224
193 220 255 271 270 273 279 275 168 146 173 182 176 181 178 180 175 176 179 180 182 181 184 188 190 188 187 194 187 192 199 197 202 203 203 199 197 208 219 217 233 233 233 230 230 227 218 212 212
277 273 272 280 307 319 296 294 256 183 201 187 180 179 179 183 185 181 177 179 175 174 183 184 194 194 196 198 192 190 195 197 203 207 202 198 204 211 216 218 226 218 214 210 214 212 207 211 215
286 291 305 302 316 315 320 306 293 253 190 175 178 179 186 187 182 175 157 154 155 166 182 187 197 202 202 205 198 192 196 199 201 200 199 198 204 213 213 217 221 214 203 202 209 215 212 214 218
287 307 306 304 310 309 314 307 317 272 164 173 183 193 194 183 158 107 82 81 88 86 45 343 236 217 211 209 201 195 194 195 193 197 200 196 198 203 206 211 212 213 201 195 196 207 205 210 214
312 329 319 299 293 285 333 320 290 261 163 179 189 193 170 87 73 65 57 56 56 48 32 23 302 254 225 202 193 181 172 165 173 186 186 181 182 187 188 196 210 221 215 199 197 210 200 207 215
335 337 304 286 276 269 218 267 285 323 148 169 178 150 88 73 71 67 61 60 57 50 27 23 354 313 248 196 184 161 153 152 163 173 170 171 175 174 170 179 210 214 197 196 209 217 210 215 219
335 285 278 294 294 274 179 241 351 30 101 89 88 93 87 76 63 60 60 62 60 53 31 27 19 331 301 229 170 130 125 153 165 167 170 175 172 166 154 164 185 161 141 143 187 141 159 190 243
268 281 294 309 324 13 52 54 36 40 61 64 65 72 74 70 63 56 59 71 77 60 48 54 33 7 341 347 355 10 6 245 175 174 177 170 166 160 148 148 153 136 116 101 123 153 164 192 226
264 301 314 308 336 46 62 60 49 48 54 52 47 45 51 57 46 43 51 63 75 70 75 73 62 20 342 350 356 345 271 249 207 185 179 171 165 159 150 144 143 130 128 158 187 171 174 246 203
329 343 337 328 353 51 78 70 59 54 57 54 46 36 30 34 36 36 42 54 58 58 54 66 60 33 337 299 263 246 240 241 211 190 184 181 171 165 156 154 155 150 142 148 211 162 164 243 171
329 324 331 333 2 31 91 65 52 55 59 56 48 37 29 29 36 40 48 48 49 48 41 44 43 28 350 335 314 312 332 4 21 267 215 206 188 175 164 167 162 164 157 182 217 204 179 205 247
308 297 327 346 18 343 52 95 56 58 54 51 45 37 27 22 31 41 47 47 49 47 45 43 38 23 6 9 14 11 12 352 323 291 268 245 210 189 176 174 172 172 170 189 220 201 188 177 219
272 306 355 353 28 32 28 98 36 31 47 45 46 44 27 24 33 44 47 48 47 44 42 36 33 32 22 22 23 22 22 2 344 347 342 315 262 220 199 187 180 178 181 193 206 204 204 193 197
21 31 28 37 54 28 340 106 16 13 80 81 69 66 41 38 50 55 55 55 48 41 34 26 23 19 17 24 25 23 18 8 8 6 356 343 327 305 271 218 195 188 185 192 201 206 211 214 216
49 63 24 1 4 294 27 95 175 176 164 147 144 157 171 138 83 77 68 60 53 44 32 30 27 11 6 17 21 17 11 4 3 354 347 343 337 326 314 275 219 203 196 194 194 202 216 219 222
302 121 139 213 246 284 16 106 191 185 185 180 169 164 167 168 110 104 143 160 199 211 217 238 18 344 347 1 358 358 1 353 340 335 331 333 324 311 323 319 273 229 209 201 196 202 216 220 225
28 359 172 150 24 67 102 108 240 243 223 200 169 148 139 147 199 248 246 230 225 222 222 218 231 274 289 288 289 298 315 318 314 315 315 314 314 320 333 330 322 293 248 222 204 209 218 221 227
129 138 65 70 63 348 307 214 213 206 217 202 184 175 193 233 263 268 261 248 235 214 205 204 213 237 251 255 253 251 257 263 272 287 296 299 303 313 321 325 324 315 291 258 229 220 222 221 230
359 30 77 93 133 133 307 287 228 196 194 188 193 204 234 259 268 269 271 272 265 248 235 236 240 245 251 252 251 253 254 254 258 263 267 271 279 290 299 304 309 309 304 291 265 245 230 225 230
43 40 107 108 352 92 135 288 291 170 167 136 306 296 294 291 287 292 304 310 306 288 275 263 256 254 254 252 252 252 254 253 252 256 260 262 267 270 272 279 288 294 298 299 289 273 258 236 229